Tracking 29892 objects as of 21-Nov-2024
HD Live streaming from Space Station
objects crossing your sky now

STARLINK-3696

Track STARLINK-3696 now!
10-day predictions
STARLINK-3696 is classified as:


NORAD ID: 51965
Int'l Code: 2022-025K
Perigee: 553.4 km
Apogee: 555.3 km
Inclination: 53.1 °
Period: 95.6 minutes
Semi major axis: 6925 km
RCS: Unknown
Launch date: March 9, 2022
Source: United States (US)
Launch site: AIR FORCE EASTERN TEST RANGE (AFETR)
Your satellite tracking list
Your tracking list is empty




NASA's NSSDC Master Catalog

Two Line Element Set (TLE):
1 51965U 22025K   24325.14936785 -.00000546  00000-0 -17788-4 0  9998
2 51965  53.0556   6.1354 0001350  87.6978 272.4166 15.06394575150419
Source of the keplerian elements: AFSPC